RADARSAT-2

Last updated on Thu Nov 21 2024 00:02:26 GMT+0000 (Coordinated Universal Time)

1 32382U 07061A 24325.55666537 .00000169 00000+0 82493-4 0 9996 2 32382 98.5796 329.6884 0001116 90.0694 270.0616 14.30038457883973
UTC large
Height (km)
Speed (km/s)
/
Latitude / Longitude
Inclination (degrees)
Orbital Period (minutes)
Azimuth
Elevation
Range (km)
Doppler Factor

Next 0 passes for location: London (51.5072 / 0.1276)

Sorry there are no passes over London.